Weather in Gherla

Romania     47°01′36″N   23°54′20″E
temp.,
°C
wind,
m/s
gust,
m/s
humid.,
%
clouds,
%
prec.,
mm/h
press.,
hPa
HPBL,
m
12 april, mon
mon1200:00+8ese116219 0.0 102210
03:00+7e1169100 0.0 102310
06:00+6e1173100 0.0 102310
09:00+9ese136789 0.0 1023201
12:00+14se33555 0.0 1021665
15:00+17se21485 0.0 10191068
18:00+18ne11475 0.0 10181299
21:00+12e116416 0.0 101910
13 april, tue
tue1300:00+10ene11715 0.0 101910
03:00+9ene117855 0.0 101810
06:00+8e11835 0.0 101810
09:00+11ese237099 0.0 1017200
12:00+17se3454100 0.0 1015887
15:00+19sse344444 0.0 10131708
18:00+18wnw4353100 0.0 10121074
21:00+9nw5893100 2.8 1014359
14 april, wed
wed1400:00+8wnw3793100 0.9 1014440
03:00+7nw2793100 4.4 1013334
06:00+6nw3794100 1.7 1013371
09:00+5nw51095100 4.9 1014407
12:00+4nw71294100 2.8 1014496
15:00+2wnw61297100 4.4 1015421
18:00+1wnw61298100 2.1 1016437
21:00+1wnw51098100 3.9 1018380
15 april, thu
thu1500:00+1wnw5998100 0.3 1018389
03:00+1wnw4898100 0.8 1018405
06:00+1wnw4898100 0.4 1019430
09:00+1wnw4899100 0.8 1020461
12:00+2wnw47100100 0.3 1020408
15:00+2nw3799100 0.8 1021356
18:00+3nw2597100 0.3 1020358
21:00+2nw2396100 0.3 1020220
16 april, fri
fri1600:00+2nw1294100 0.0 102198
03:00+2nw1395100 0.0 1020162
06:000wnw219674 0.0 102111
09:00+3nw258516 0.0 1022389
12:00+7nw567096 0.0 10211234
15:00+7nw4567100 0.1 10221153
18:00+7nw456629 0.0 10211105
21:00+3nw118289 0.0 102310